Location: Filler
(36.7551°N, 30.4456°E)
Time: 16:44:09
(UTC+00:00)

Cosmos 1812 - Pass Details

Date: 18 September 2024
Orbit: 453 x 456 km, 82.5° (Epoch: 09 October)

Event Time Altitude Azimuth Distance (km) Brightness Sun altitude
Exits shadow 01:02:25 11° 23° (NNE) 1,544 5.7 -31.5°
Drops below altitude 10° 01:02:37 10° 22° (NNE) 1,624 5.8 -31.5°
Sets 01:04:46 0° 15° (NNE) 2,506 6.8 -31.1°
